{"data":{"norad_id":47357,"intl_designator":"2021-005J","name":"STARLINK-2050","alt_names":[],"object_type":"PAYLOAD","status":"ACTIVE","operator":null,"country":"US","launch_date":"2021-01-20","launch_site_code":"AFETR","launch_vehicle":null,"mission":null,"orbit_class":"UNKNOWN","rcs_meters":null,"size_class":null,"mass_kg":null,"dimensions":null,"purposes":["comms"],"wikipedia_slug":null,"has_3d_model":false,"image_url":null,"decayed_at":null,"tle_current":{"epoch":"2026-09-19T22:01:25.428288Z","epoch_age_seconds":76109,"freshness":"FRESH","line1":"1 47357U 21005J   26262.91765542  .00000221  00000+0  18891-4 0  9996","line2":"2 47357  53.1592 238.9804 0001507  94.7021 265.4152 15.31706364312785","mean_motion":15.31706364,"eccentricity":0.0001507,"inclination_deg":53.1592,"raan_deg":238.9804,"arg_perigee_deg":94.7021,"mean_anomaly_deg":265.4152,"bstar":1.8891e-5,"rev_number":31278,"period_min":94.01279735102,"perigee_km":469.68890163419,"apogee_km":471.75314744279,"semimajor_km":6848.8580245385,"source":"CELESTRAK","updated_at":"2026-09-20T09:00:38.589886Z"}}}